Niagara Falls, NY

4:34 AM EDT on October 22, 2017 (GMT -0400)
Niagara Falls International

Weather History for KIAG - August, 2014

Change the Weather History Date:

Monday, August 11, 2014

  Actual Average Record
Temperature  
Mean Temperature 72 °F -  
Max Temperature 84 °F 78 °F 91 °F (2016)
Min Temperature 61 °F 59 °F 51 °F (1996)
Cooling Degree Days 8    
Growing Degree Days 22 (Base 50)    
Moisture  
Dew Point 59 °F    
Average Humidity 66    
Maximum Humidity 90    
Minimum Humidity 44    
Precipitation  
Precipitation 0.00 in - - ()
Sea Level Pressure  
Sea Level Pressure 29.97 in    
Wind  
Wind Speed 6 mph (SE)    
Max Wind Speed 16 mph    
Max Gust Speed 24 mph    
Visibility 9 miles    
Events      
Averages and records for this station are not official NWS values.
T = Trace of Precipitation, MM = Missing Value Source: NWS Daily Summary

Daily Weather History Graph

Daily Weather History Graph

Search for Another Location

Airport or City:

Trip Planner

Search our weather history database for the weather conditions in past years. The results will help you decide how hot, cold, wet, or windy it might be!

Date:

Astronomy

Aug. 11, 2014 Rise Set
Actual Time 6:17 AM EDT 8:24 PM EDT
Civil Twilight 5:45 AM EDT 8:55 PM EDT
Nautical Twilight 5:07 AM EDT 9:33 PM EDT
Astronomical Twilight 4:25 AM EDT 10:15 PM EDT
Moon 8:47 PM EDT (8/11) 7:23 AM EDT (8/11)
Length of Visible Light 15h 09m
Length of Day
14h 07m
Full, 99% of the Moon is Illuminated
Aug 11
Full
Aug 17
Last Quarter
Aug 25
New
Sep 2
First Quarter
Sep 8
Full

Hourly Weather History & Observations

Time (EDT) Temp. Heat Index Dew Point Humidity Pressure Visibility Wind Dir Wind Speed Gust Speed Precip Events Conditions
12:53 AM 64.0 °F - 59.0 °F 84% 30.06 in 10.0 mi East 4.6 mph - N/A   Clear
1:53 AM 63.0 °F - 59.0 °F 87% 30.06 in 10.0 mi East 4.6 mph - N/A   Clear
2:53 AM 63.0 °F - 59.0 °F 87% 30.05 in 10.0 mi Calm Calm - N/A   Clear
3:53 AM 62.1 °F - 57.9 °F 86% 30.04 in 10.0 mi East 3.5 mph - N/A   Clear
4:53 AM 61.0 °F - 57.9 °F 90% 30.04 in 10.0 mi ENE 3.5 mph - N/A   Clear
5:53 AM 61.0 °F - 57.9 °F 90% 30.03 in 10.0 mi East 3.5 mph - N/A   Clear
6:53 AM 61.0 °F - 57.9 °F 90% 30.03 in 10.0 mi East 4.6 mph - N/A   Clear
7:00 AM 61.0 °F - 57.9 °F 90% 30.04 in 10.0 mi East 3.5 mph - N/A   Mostly Cloudy
7:53 AM 64.9 °F - 60.1 °F 84% 30.02 in 7.0 mi Calm Calm - N/A   Mostly Cloudy
8:53 AM 71.1 °F - 62.1 °F 73% 30.02 in 7.0 mi SE 4.6 mph - N/A   Mostly Cloudy
9:53 AM 75.9 °F - 64.0 °F 67% 30.01 in 7.0 mi SSW 5.8 mph - N/A   Mostly Cloudy
10:53 AM 79.0 °F - 63.0 °F 58% 30.00 in 7.0 mi South 9.2 mph - N/A   Mostly Cloudy
11:53 AM 81.0 °F 81.6 °F 60.1 °F 49% 29.99 in 7.0 mi South 15.0 mph - N/A   Mostly Cloudy
12:53 PM 84.0 °F 84.0 °F 60.1 °F 44% 29.98 in 10.0 mi South 11.5 mph 24.2 mph N/A   Mostly Cloudy
1:53 PM 82.0 °F 82.4 °F 60.1 °F 47% 29.97 in 10.0 mi SSE 16.1 mph 21.9 mph N/A   Mostly Cloudy
2:53 PM 82.0 °F 82.1 °F 59.0 °F 45% 29.95 in 10.0 mi South 16.1 mph 24.2 mph N/A   Mostly Cloudy
3:53 PM 84.9 °F 85.4 °F 62.1 °F 46% 29.94 in 10.0 mi South 10.4 mph 19.6 mph N/A   Mostly Cloudy
4:53 PM 80.1 °F 80.7 °F 59.0 °F 48% 29.93 in 10.0 mi South 12.7 mph - N/A   Overcast
6:53 PM 77.0 °F - 57.0 °F 50% 29.92 in 10.0 mi SSE 9.2 mph - N/A   Overcast
7:53 PM 75.9 °F - 55.9 °F 50% 29.90 in 10.0 mi SE 13.8 mph - N/A   Overcast
8:53 PM 75.0 °F - 54.0 °F 48% 29.87 in 10.0 mi SE 11.5 mph - N/A   Overcast
9:53 PM 73.9 °F - 55.0 °F 52% 29.86 in 10.0 mi SE 11.5 mph - N/A   Overcast
10:53 PM 73.0 °F - 55.0 °F 53% 29.84 in 10.0 mi SE 10.4 mph - N/A   Overcast
11:53 PM 73.0 °F - 57.0 °F 57% 29.81 in 10.0 mi SSE 10.4 mph - N/A   Overcast